Regional Weather Roundup
Issued by NWS Sioux Falls, SD

Home | Current Version | Previous Version | Text Only | Print | Product List | Glossary Off
Versions: 1 2 3 4 5 6 7 8 9 10 11 12 13 14 15 16 17 18 19 20 21 22 23 24 25 26 27 28 29 30 31 32 33 34 35 36 37 38 39 40 41 42 43 44 45 46 47 48 49 50

000
ASUS43 KFSD 301610
RWRFSD

WEATHER ROUNDUP FOR SE SOUTH DAKOTA/SW MINNESOTA/NW IOWA
NATIONAL WEATHER SERVICE SIOUX FALLS SD
1100 AM CDT SUN APR 30 2017

NOTE: "FAIR" INDICATES FEW OR NO CLOUDS BELOW 12,000 FEET WITH NO
SIGNIFICANT WEATHER AND OR OBSTRUCTIONS TO VISIBILITY.


SDZ038>040-050-052>070-301700-
SOUTHEAST SOUTH DAKOTA

CITY           SKY/WX    TMP DP  RH WIND       PRES   REMARKS
BROOKINGS      CLOUDY    42  28  57 NE17      29.96F
CHAMBERLAIN    CLOUDY    48  24  38 N14G20    29.97R
HURON          PTSUNNY   47  29  49 N14       29.98S
MADISON        CLOUDY    41  28  60 NE18G26   29.94F
MITCHELL       CLOUDY    47  29  49 NE16      29.96S
SIOUX FALLS    LGT RAIN  40  39  97 NE22G28   29.92F
WINNER         FAIR      49  24  37 NE22      29.96R
YANKTON        CLOUDY    39  34  81 N18G25    29.89F
$$

MNZ071-072-080-081-089-090-097-098-301700-
SOUTHWEST MINNESOTA

CITY           SKY/WX    TMP DP  RH WIND       PRES   REMARKS
FAIRMONT       CLOUDY    39  36  89 NE20      29.92F
JACKSON        CLOUDY    37  36  93 NE20G28   29.91F
LUVERNE        LGT RAIN  37  34  87 NE22G29   29.91F
MARSHALL       LGT RAIN  37  33  85 NE15      30.01F
MONTEVIDEO     CLOUDY    45  25  45 E14       30.03F
PIPESTONE      DRIZZLE   37  30  75 NE16G25   29.93F
REDWOOD FALLS  LGT RAIN  40  31  70 N7        30.01S
TRACY          LGT RAIN  38  35  88 NE15      29.98F
WINDOM         LGT RAIN  39  36  87 N20       29.94F
WORTHINGTON    LGT RAIN  38  35  89 NE25      29.90F
$$

IAZ001>003-012>014-020>022-031-032-NEZ013-014-SDZ071-301700-
NORTHWEST IOWA

CITY           SKY/WX    TMP DP  RH WIND       PRES   REMARKS
CHEROKEE       RAIN      39  39  99 NE12G17   29.87S
DENISON        CLOUDY    39  37  93 NE31G47   29.72F
ESTHERVILLE    CLOUDY    38  37  97 NE24G32   29.88F
ORANGE CITY    RAIN      37  37 100 NE10G17   29.86F
SHELDON        RAIN      39  37  93 NE23      29.86F
SIOUX CITY     LGT RAIN  41  39  93 NE16G30   29.81F
SPENCER        LGT RAIN  40  38  93 NE21      29.88F FOG
STORM LAKE     PTSUNNY   37  36  93 NE25G32   29.84S FOG
$$

ABBREVIATIONS USED IN REMARKS
   TC - TEMPERATURE IN CELSIUS
  WCI - WIND CHILL INDEX
   HX - HEAT INDEX
  VSB - VISIBILITY





USA.gov is the U.S. government's official web portal to all federal, state and local government web resources and services.